Terug naar catalogus

CZ-4 DEB

ActiefSSO
NORAD 20892·DEBRIS·🇨🇳 China

Gelanceerd Sep 3, 1990 vanaf Taiyuan Satellite Launch Center

Loading…

Volgende Passages (komende 24 uur)

TLE

VersSource: Space-Track

Epoch: Sep 13, 2026, 11:26 UTC

1 20892U 90081BC  26256.47655715  .00000551  00000-0  48587-3 0  9996
2 20892  98.8995  87.9455 0160162  94.1822 296.9879 13.83434131802855

Volg CZ-4 DEB in realtime met AllMySat

Download on the App Store